Regional Weather Roundup
Issued by NWS

Home | Current Version | Previous Version | Graphics & Text | Print | Product List | Glossary Off
Versions: 1 2 3 4 5 6 7 8 9 10 11 12 13 14 15 16 17 18 19 20 21 22 23 24 25 26 27 28 29 30 31 32 33 34 35 36 37 38 39 40 41 42 43 44 45 46 47 48 49 50

000
ASUS43 KTOP 292010
RWRKS

STATE WEATHER ROUNDUP
NATIONAL WEATHER SERVICE DODGE CITY KS
 FOR NATIONAL WEATHER SERVICE GOODLAND KS
300 PM CDT WED JUL 29 2015

NOTE:  "FAIR" INDICATES FEW OR NO CLOUDS BELOW 12,000 FEET WITH NO
SIGNIFICANT WEATHER AND/OR OBSTRUCTIONS TO VISIBILITY.

KSZ001>006-013>018-027>032-041>047-292100-
...NORTHWEST KANSAS...

CITY           SKY/WX    TMP DP  RH WIND       PRES   REMARKS
GOODLAND       PTSUNNY   78  40  25 SE12      30.30F
HAYS           PTSUNNY   79  55  44 NE10      30.23F
HILL CITY      MOSUNNY   83  53  35 VRB5      30.24F
RUSSELL        PTSUNNY   80  59  48 NE10      30.21S
$$

KSZ061>065-074>080-084>089-292100-
...SOUTHWEST KANSAS...

CITY           SKY/WX    TMP DP  RH WIND       PRES   REMARKS
DODGE CITY     MOSUNNY   80  62  54 VRB5      30.22S
ELKHART          N/A     79  63  58 NE5         N/A
GARDEN CITY    CLOUDY    78  60  53 N10       30.24F
GREAT BEND     MOSUNNY   81  64  57 E8        30.19S
LIBERAL        PTSUNNY   84  66  54 NE7       30.20F
PRATT          CLOUDY    72  68  88 NE6       30.19S
$$

KSZ066>073-081>083-090>101-292100-
...SOUTHEAST KANSAS...

CITY           SKY/WX    TMP DP  RH WIND       PRES   REMARKS
CHANUTE        SUNNY     89  72  56 NE14      30.10S HX  96
COFFEYVILLE    PTSUNNY   95  70  44 MISG      30.05F HX 101
HUTCHINSON     PTSUNNY   79  67  66 NE8       30.16R
MEDICINE LODGE   N/A     75  71  87 N20       30.11S
NEWTON         CLOUDY    81  66  61 E8        30.16S
PARSONS        SUNNY     94  72  48 NE5       30.08F HX 102
WICHITA INTL   CLOUDY    82  71  69 NE12      30.11S
WICHITA JABRA  CLOUDY    80  72  76 NE14      30.11F
WICHITA MCCONL PTSUNNY   83  70  65 NE10      30.11F
WINFIELD       MOSUNNY   94  71  47 SE10      30.08F HX 101
$$

KSZ007>012-019>026-033>040-048>060-102>105-292100-
...NORTHEAST KANSAS...

CITY           SKY/WX    TMP DP  RH WIND       PRES   REMARKS
CONCORDIA      CLOUDY    80  59  48 E9        30.20R
EMPORIA        PTSUNNY   80  69  69 NE10      30.14S
LAWRENCE       PTSUNNY   84  68  58 NE12      30.13F
MANHATTAN      CLOUDY    80  71  74 NE7       30.15R
OLATHE IND     PTSUNNY   84  71  65 NE10      30.15S
OLATHE EXE     MOSUNNY   83  66  56 NE10      30.14S
SALINA         CLOUDY    79  69  71 N6        30.18R
TOPEKA BILLARD PTSUNNY   82  70  66 NE9       30.13F
TOPEKA FORBES  PTSUNNY   85  68  56 NE9       30.14S
$$



USA.gov is the U.S. government's official web portal to all federal, state and local government web resources and services.